SWA1873 KMCO-TNCM

Flight info

Callsign SWA1873
Flight time N/A
Altitude 37000
Route DDANY3 JIPOD DCT VENDS Y185 COUKY DCT FIPEK Y355 SLUGO
Aircraft B737/M-SDE2E3FGHIRWXY/LB1

Departure

Time 2026-04-26 18:18
Airport Orlando International Airport (KMCO)

Arrival

Time N/A
Airport Princess Juliana International Airport (TNCM)
Time Latitude Longitude Altitude Speed Heading
2026-04-26 17:20 28.43491 -81.30340 99 ft 0 kts 35°
2026-04-26 17:44 28.43490 -81.30341 100 ft 2 kts 34°
2026-04-26 17:45 28.43476 -81.30350 100 ft 3 kts 39°
2026-04-26 17:45 28.43459 -81.30372 99 ft 4 kts 65°
2026-04-26 17:45 28.43454 -81.30399 97 ft 4 kts 105°
2026-04-26 17:45 28.43460 -81.30416 100 ft 0 kts 122°
2026-04-26 17:51 28.43460 -81.30415 100 ft 0 kts 118°
2026-04-26 17:51 28.43462 -81.30413 100 ft 0 kts 76°
2026-04-26 17:51 28.43465 -81.30413 100 ft 0 kts 33°
2026-04-26 17:51 28.43467 -81.30414 97 ft 0 kts 354°
2026-04-26 17:52 28.43468 -81.30416 97 ft 0 kts 339°
2026-04-26 17:57 28.43484 -81.30434 99 ft 5 kts 313°
2026-04-26 17:58 28.43640 -81.30380 100 ft 11 kts 49°
2026-04-26 17:59 28.43719 -81.30267 99 ft 7 kts 52°
2026-04-26 17:59 28.43745 -81.30228 99 ft 6 kts 52°
2026-04-26 17:59 28.43772 -81.30189 98 ft 7 kts 52°
2026-04-26 17:59 28.43802 -81.30144 99 ft 7 kts 53°
2026-04-26 18:00 28.43824 -81.30098 100 ft 7 kts 78°
2026-04-26 18:00 28.43823 -81.30035 100 ft 8 kts 97°
2026-04-26 18:00 28.43807 -81.29975 100 ft 8 kts 120°
2026-04-26 18:00 28.43772 -81.29934 101 ft 7 kts 138°
2026-04-26 18:01 28.43731 -81.29906 101 ft 7 kts 155°
2026-04-26 18:01 28.43685 -81.29896 101 ft 7 kts 178°
2026-04-26 18:01 28.43631 -81.29888 100 ft 8 kts 170°
2026-04-26 18:01 28.43593 -81.29884 100 ft 3 kts 184°
2026-04-26 18:02 28.43577 -81.29886 100 ft 1 kts 184°
2026-04-26 18:02 28.43575 -81.29886 100 ft 1 kts 184°
2026-04-26 18:02 28.43555 -81.29871 101 ft 0 kts 123°
2026-04-26 18:02 28.43553 -81.29863 101 ft 3 kts 112°
2026-04-26 18:03 28.43550 -81.29840 101 ft 3 kts 95°
2026-04-26 18:03 28.43549 -81.29806 103 ft 7 kts 90°
2026-04-26 18:03 28.43550 -81.29737 102 ft 6 kts 89°
2026-04-26 18:03 28.43550 -81.29702 102 ft 0 kts 89°
2026-04-26 18:16 28.43552 -81.29620 103 ft 7 kts 96°
2026-04-26 18:16 28.43526 -81.29592 103 ft 4 kts 164°
2026-04-26 18:17 28.43483 -81.29588 104 ft 24 kts 177°
2026-04-26 18:17 28.43051 -81.29584 105 ft 99 kts 180°
2026-04-26 18:17 28.42147 -81.29584 102 ft 159 kts 180°
2026-04-26 18:17 28.40945 -81.29569 486 ft 179 kts 182°
2026-04-26 18:18 28.39681 -81.29603 1263 ft 186 kts 184°
2026-04-26 18:18 28.38362 -81.29553 1968 ft 195 kts 171°
2026-04-26 18:18 28.37022 -81.28836 2172 ft 236 kts 145°
2026-04-26 18:18 28.35780 -81.27580 2776 ft 245 kts 139°
2026-04-26 18:19 28.34434 -81.26283 3196 ft 270 kts 144°
2026-04-26 18:19 28.32926 -81.24797 3591 ft 294 kts 137°
2026-04-26 18:19 28.31485 -81.23207 4758 ft 288 kts 136°
2026-04-26 18:19 28.30478 -81.21232 5111 ft 293 kts 103°
2026-04-26 18:20 28.30136 -81.18971 6179 ft 288 kts 99°
2026-04-26 18:20 28.29793 -81.16720 7069 ft 293 kts 100°
2026-04-26 18:20 28.29396 -81.14424 7879 ft 299 kts 101°
2026-04-26 18:20 28.29271 -81.13669 8152 ft 301 kts 101°
2026-04-26 18:21 28.28614 -81.09738 9668 ft 305 kts 100°
2026-04-26 18:21 28.28207 -81.07352 10389 ft 313 kts 100°
2026-04-26 18:21 28.27774 -81.04832 10617 ft 339 kts 101°
2026-04-26 18:21 28.27312 -81.02161 10944 ft 357 kts 101°
2026-04-26 18:22 28.26821 -80.99337 11662 ft 363 kts 101°
2026-04-26 18:22 28.26333 -80.96547 12441 ft 367 kts 100°
2026-04-26 18:22 28.25827 -80.93682 13178 ft 373 kts 100°
2026-04-26 18:22 28.25316 -80.90771 13881 ft 379 kts 100°
2026-04-26 18:23 28.24799 -80.87825 14599 ft 381 kts 100°
2026-04-26 18:23 28.24277 -80.84863 15361 ft 384 kts 100°
2026-04-26 18:23 28.23751 -80.81883 16089 ft 388 kts 100°
2026-04-26 18:23 28.23216 -80.78862 16797 ft 392 kts 100°
2026-04-26 18:24 28.22675 -80.75814 17553 ft 397 kts 100°
2026-04-26 18:24 28.22127 -80.72723 18298 ft 402 kts 100°
2026-04-26 18:24 28.21576 -80.69610 18923 ft 405 kts 100°
2026-04-26 18:24 28.20956 -80.66477 19546 ft 409 kts 106°
2026-04-26 18:25 28.20024 -80.63421 20187 ft 412 kts 110°
2026-04-26 18:25 28.19009 -80.60412 20794 ft 416 kts 110°
2026-04-26 18:25 28.17953 -80.57347 21399 ft 419 kts 111°
2026-04-26 18:25 28.16896 -80.54257 21989 ft 422 kts 110°
2026-04-26 18:26 28.15840 -80.51133 22559 ft 427 kts 110°
2026-04-26 18:26 28.14784 -80.47973 23100 ft 431 kts 110°
2026-04-26 18:26 28.13718 -80.44769 23631 ft 435 kts 110°
2026-04-26 18:26 28.12647 -80.41544 24122 ft 438 kts 110°
2026-04-26 18:27 28.11570 -80.38300 24615 ft 441 kts 110°
2026-04-26 18:27 28.10483 -80.35032 25074 ft 445 kts 110°
2026-04-26 18:27 28.09759 -80.32854 25367 ft 447 kts 110°
2026-04-26 18:27 28.08656 -80.29545 25823 ft 451 kts 110°
2026-04-26 18:28 28.07181 -80.25123 26415 ft 455 kts 110°
2026-04-26 18:28 28.06058 -80.21763 26849 ft 458 kts 110°
2026-04-26 18:28 28.05293 -80.19478 27135 ft 460 kts 110°
2026-04-26 18:28 28.04151 -80.16072 27575 ft 463 kts 110°
2026-04-26 18:29 28.02988 -80.12652 27922 ft 468 kts 110°
2026-04-26 18:29 28.01744 -80.09228 28300 ft 472 kts 110°
2026-04-26 18:29 28.00573 -80.05753 28675 ft 474 kts 109°
2026-04-26 18:29 27.99420 -80.02296 29164 ft 475 kts 111°
2026-04-26 18:30 27.98192 -79.98823 29608 ft 476 kts 109°
2026-04-26 18:30 27.97064 -79.95290 29985 ft 479 kts 108°
2026-04-26 18:30 27.95978 -79.91712 30285 ft 482 kts 107°
2026-04-26 18:30 27.94840 -79.88130 30575 ft 486 kts 109°
2026-04-26 18:31 27.93630 -79.84548 30874 ft 488 kts 110°
2026-04-26 18:31 27.92391 -79.80972 31265 ft 488 kts 110°
2026-04-26 18:31 27.91147 -79.77400 31695 ft 488 kts 109°
2026-04-26 18:31 27.89907 -79.73825 32005 ft 490 kts 109°
2026-04-26 18:32 27.88670 -79.70231 32320 ft 491 kts 109°
2026-04-26 18:32 27.87438 -79.66632 32699 ft 491 kts 108°
2026-04-26 18:32 27.86210 -79.63034 33093 ft 490 kts 108°
2026-04-26 18:32 27.84983 -79.59435 33431 ft 490 kts 108°
2026-04-26 18:33 27.83757 -79.55838 33744 ft 491 kts 108°
2026-04-26 18:33 27.82527 -79.52233 34048 ft 492 kts 108°
2026-04-26 18:33 27.81295 -79.48627 34351 ft 491 kts 108°
2026-04-26 18:33 27.80064 -79.45029 34670 ft 491 kts 108°
2026-04-26 18:34 27.78834 -79.41437 34966 ft 490 kts 108°
2026-04-26 18:34 27.77601 -79.37843 35196 ft 491 kts 107°
2026-04-26 18:34 27.76381 -79.34287 35448 ft 492 kts 107°
2026-04-26 18:34 27.75147 -79.30695 35761 ft 490 kts 107°
2026-04-26 18:35 27.73913 -79.27109 36088 ft 488 kts 107°
2026-04-26 18:35 27.72685 -79.23543 36416 ft 486 kts 107°
2026-04-26 18:35 27.71460 -79.19990 36725 ft 485 kts 107°
2026-04-26 18:35 27.70239 -79.16449 36953 ft 485 kts 107°
2026-04-26 18:36 27.67767 -79.09283 36981 ft 495 kts 108°
2026-04-26 18:36 27.65258 -79.02023 36986 ft 504 kts 107°
2026-04-26 18:37 27.62689 -78.94612 36980 ft 509 kts 107°
2026-04-26 18:37 27.60100 -78.87167 36964 ft 510 kts 108°
2026-04-26 18:38 27.57509 -78.79728 36964 ft 510 kts 108°
2026-04-26 18:38 27.54908 -78.72273 36970 ft 510 kts 108°
2026-04-26 18:39 27.52309 -78.64838 36989 ft 509 kts 108°
2026-04-26 18:39 27.49707 -78.57409 36977 ft 509 kts 108°
2026-04-26 18:40 27.47109 -78.50005 36975 ft 508 kts 108°
2026-04-26 18:40 27.44508 -78.42611 36972 ft 507 kts 108°
2026-04-26 18:41 27.41921 -78.35270 36979 ft 507 kts 108°
2026-04-26 18:41 27.39317 -78.27897 36977 ft 507 kts 108°
2026-04-26 18:42 27.36699 -78.20502 36979 ft 507 kts 108°
2026-04-26 18:42 27.34036 -78.13150 36969 ft 508 kts 112°
2026-04-26 18:43 27.30356 -78.06372 36985 ft 512 kts 121°
2026-04-26 18:43 27.26343 -77.99767 36983 ft 512 kts 121°
2026-04-26 18:44 27.22346 -77.93122 36995 ft 512 kts 121°
2026-04-26 18:44 27.18392 -77.86452 36978 ft 512 kts 121°
2026-04-26 18:45 27.14454 -77.79793 36982 ft 511 kts 121°
2026-04-26 18:45 27.10513 -77.73145 36981 ft 511 kts 121°
2026-04-26 18:46 27.06588 -77.66542 36975 ft 511 kts 121°
2026-04-26 18:46 27.02637 -77.59907 36978 ft 511 kts 121°
2026-04-26 18:47 26.98707 -77.53272 36983 ft 511 kts 121°
2026-04-26 18:47 26.94832 -77.46600 36976 ft 510 kts 121°
2026-04-26 18:48 26.90961 -77.39926 36979 ft 510 kts 121°
2026-04-26 18:48 26.87081 -77.33268 36977 ft 510 kts 122°
2026-04-26 18:49 26.83211 -77.26652 36979 ft 511 kts 122°
2026-04-26 18:49 26.79304 -77.19986 36989 ft 512 kts 122°
2026-04-26 18:50 26.75391 -77.13317 36977 ft 512 kts 122°
2026-04-26 18:50 26.71481 -77.06664 36978 ft 512 kts 122°
2026-04-26 18:51 26.67561 -77.00003 36977 ft 512 kts 122°
2026-04-26 18:51 26.63670 -76.93402 36981 ft 511 kts 122°
2026-04-26 18:52 26.59754 -76.86767 36978 ft 511 kts 122°
2026-04-26 18:52 26.55833 -76.80133 36979 ft 510 kts 123°
2026-04-26 18:53 26.51918 -76.73520 36974 ft 509 kts 123°
2026-04-26 18:53 26.48005 -76.66919 36980 ft 509 kts 123°
2026-04-26 18:54 26.44111 -76.60361 36980 ft 509 kts 123°
2026-04-26 18:54 26.40190 -76.53766 36982 ft 509 kts 123°
2026-04-26 18:55 26.36250 -76.47202 37000 ft 508 kts 125°
2026-04-26 18:55 26.32321 -76.40646 36989 ft 507 kts 124°
2026-04-26 18:56 26.28458 -76.34123 36978 ft 507 kts 124°
2026-04-26 18:56 26.24565 -76.27581 36981 ft 506 kts 124°
2026-04-26 18:57 26.21296 -76.22115 36980 ft 506 kts 124°
2026-04-26 18:57 26.16750 -76.14537 36975 ft 506 kts 124°
2026-04-26 18:58 26.12763 -76.08083 36969 ft 506 kts 125°
2026-04-26 18:58 26.08875 -76.01544 36969 ft 506 kts 124°
2026-04-26 18:59 26.04994 -75.95013 36979 ft 506 kts 124°
2026-04-26 18:59 26.01088 -75.88507 36978 ft 506 kts 125°
2026-04-26 19:00 25.97170 -75.82021 36980 ft 506 kts 125°
2026-04-26 19:00 25.93245 -75.75536 36998 ft 504 kts 126°
2026-04-26 19:01 25.89360 -75.69122 36972 ft 503 kts 126°
2026-04-26 19:01 25.85461 -75.62694 36970 ft 501 kts 126°
2026-04-26 19:02 25.81563 -75.56276 36970 ft 500 kts 126°
2026-04-26 19:02 25.78327 -75.50956 36976 ft 500 kts 126°
2026-04-26 19:03 25.73791 -75.43507 36979 ft 501 kts 126°
2026-04-26 19:03 25.69877 -75.37103 36969 ft 501 kts 126°
2026-04-26 19:04 25.65973 -75.30707 36973 ft 501 kts 126°
2026-04-26 19:04 25.62074 -75.24322 36976 ft 500 kts 126°
2026-04-26 19:05 25.56216 -75.14756 36978 ft 500 kts 127°
2026-04-26 19:06 25.52306 -75.08384 36980 ft 500 kts 127°
2026-04-26 19:06 25.48429 -75.02001 36999 ft 498 kts 126°
2026-04-26 19:07 25.44491 -74.95748 36977 ft 497 kts 128°
2026-04-26 19:07 25.40571 -74.89439 36975 ft 498 kts 127°
2026-04-26 19:08 25.36694 -74.83076 36977 ft 498 kts 127°
2026-04-26 19:08 25.32805 -74.76733 36973 ft 498 kts 127°
2026-04-26 19:09 25.28911 -74.70429 36970 ft 498 kts 127°
2026-04-26 19:09 25.24993 -74.64108 36980 ft 499 kts 127°
2026-04-26 19:10 25.21069 -74.57785 36973 ft 499 kts 127°
2026-04-26 19:10 25.17144 -74.51465 36977 ft 499 kts 127°
2026-04-26 19:11 25.13210 -74.45140 36973 ft 499 kts 127°
2026-04-26 19:11 25.09276 -74.38822 36967 ft 500 kts 128°
2026-04-26 19:12 25.05312 -74.32483 36975 ft 501 kts 131°
2026-04-26 19:12 25.01200 -74.26331 36970 ft 504 kts 125°
2026-04-26 19:13 24.97431 -74.19804 36965 ft 504 kts 127°
2026-04-26 19:13 24.93472 -74.13428 36973 ft 504 kts 128°
2026-04-26 19:14 24.89452 -74.07080 36971 ft 504 kts 128°
2026-04-26 19:14 24.86122 -74.01805 36972 ft 504 kts 128°
2026-04-26 19:15 24.81488 -73.94439 36977 ft 503 kts 129°
2026-04-26 19:15 24.77507 -73.88110 36972 ft 502 kts 129°
2026-04-26 19:16 24.74170 -73.82813 36938 ft 502 kts 129°
2026-04-26 19:16 24.70209 -73.76537 36968 ft 504 kts 129°
2026-04-26 19:17 24.66189 -73.70176 36977 ft 506 kts 129°
2026-04-26 19:17 24.62161 -73.63811 36965 ft 507 kts 130°
2026-04-26 19:18 24.58139 -73.57461 36973 ft 508 kts 130°
2026-04-26 19:18 24.54049 -73.51109 36972 ft 508 kts 131°
2026-04-26 19:19 24.49867 -73.44862 36969 ft 507 kts 132°
2026-04-26 19:19 24.45671 -73.38633 36970 ft 507 kts 132°
2026-04-26 19:20 24.41482 -73.32394 36972 ft 507 kts 131°
2026-04-26 19:20 24.37302 -73.26156 36936 ft 507 kts 132°
2026-04-26 19:21 24.33144 -73.19955 36975 ft 508 kts 132°
2026-04-26 19:21 24.28945 -73.13705 36977 ft 510 kts 132°
2026-04-26 19:22 24.24734 -73.07442 36965 ft 511 kts 132°
2026-04-26 19:22 24.20517 -73.01178 36968 ft 511 kts 132°
2026-04-26 19:23 24.16289 -72.94906 36961 ft 512 kts 132°
2026-04-26 19:23 24.12053 -72.88630 36967 ft 511 kts 133°
2026-04-26 19:24 24.07843 -72.82402 36966 ft 511 kts 133°
2026-04-26 19:24 24.01493 -72.73022 36958 ft 511 kts 133°
2026-04-26 19:25 23.97976 -72.67835 36962 ft 511 kts 133°
2026-04-26 19:25 23.93010 -72.60520 36967 ft 513 kts 133°
2026-04-26 19:26 23.88748 -72.54251 36970 ft 514 kts 133°
2026-04-26 19:26 23.84466 -72.47959 36967 ft 515 kts 133°
2026-04-26 19:27 23.80218 -72.41724 36970 ft 515 kts 133°
2026-04-26 19:27 23.75937 -72.35450 36969 ft 515 kts 133°